Location: Unspecified
(0.0000°N, 0.0000°E)
Time: 11:25:30
(UTC+00:00)

Explorer 7 - Pass Details

Date: 28 November 2019
Orbit: 485 x 680 km, 50.3° (Epoch: 07 December)

Event Time Altitude Azimuth Distance (km) Brightness Sun altitude
Rises 06:40:12 0° 286° (WNW) 2,578 9.6 12.2°
Reaches altitude 10° 06:44:03 10° 246° (WSW) 1,671 8.9 13.1°
Maximum altitude 06:44:57 11° 232° (SW) 1,624 9.0 13.3°
Drops below altitude 10° 06:45:51 10° 218° (SW) 1,665 9.2 13.5°
Sets 06:49:40 0° 179° (S) 2,542 10.5 14.4°
